Regional Weather Roundup
Issued by NWS Northern Indiana

Home | Current Version | Previous Version | Graphics & Text | Print | Product List | Glossary On
Versions: 1 2 3 4 5 6 7 8 9 10 11 12 13 14 15 16 17 18 19 20 21 22 23 24 25 26 27 28 29 30 31 32 33 34 35 36 37 38 39 40 41 42 43 44 45 46 47 48 49 50
000
ASUS43 KIWX 221310
RWRIWX

KIWX WEATHER ROUNDUP
NATIONAL WEATHER SERVICE NORTHERN INDIANA
900 AM EDT FRI AUG 22 2014

NOTE: "FAIR" INDICATES FEW OR NO CLOUDS BELOW 12,000 FEET WITH NO
SIGNIFICANT WEATHER AND/OR OBSTRUCTIONS TO VISIBILITY.

* THESE STATIONS ARE NOT UNDER NWS QUALITY CONTROL. THEY ALSO MAY NOT
  REPORT WEATHER SUCH AS PRECIPITATION OR FOG.

INZ001>027-221400-
NORTHERN INDIANA

CITY           SKY/WX    TMP DP  RH WIND       PRES   REMARKS
GARY*          PTSUNNY   75  73  94 SE8       29.94F
VALPARAISO     PTSUNNY   73  71  93 S7        29.97R
MICHIGAN CITY* MOSUNNY   73  73 100 CALM      29.96S
LAPORTE*       CLOUDY    71  71 100 S5        29.98R
KNOX*          CLOUDY    71  68  92 S3        29.97R
SOUTH BEND     PTSUNNY   72  69  90 S8        29.97S
GOSHEN         CLOUDY    74  71  91 S7        29.98R
MONTICELLO*    RAIN      72  71  99 CALM      29.98R
LOGANSPORT*    CLOUDY    70  68  94 SW9       29.99R
ROCHESTER*     CLOUDY    73  73 100 S7        30.00R
ANGOLA*        CLOUDY    72  63  73 S6        29.99R
FORT WAYNE     CLOUDY    71  69  93 SW13      30.01R
HUNTINGTON*    DRIZZLE   70  69  97 S3        29.99F
PERU/GRISSOM   LGT RAIN  72  72 100 SW9       29.99F
MARION*        RAIN      69  68  98 S7        30.02F

$$
INZ028>050-221400-
CENTRAL INDIANA

CITY           SKY/WX    TMP DP  RH WIND       PRES   REMARKS
LAFAYETTE      LGT RAIN  71  71 100 SW8       30.01R
KOKOMO*        CLOUDY    70  68  94 S6        30.01S
MUNCIE*        LGT RAIN  70  68  93 SE5       30.04R
INDIANAPOLIS   LGT RAIN  76  72  87 NE7       30.01R

$$
MIZ043>046-050>051-056>058-064>065-071>073-077>080-221400-
SOUTHWEST LOWER MICHIGAN

CITY           SKY/WX    TMP DP  RH WIND       PRES   REMARKS
BATTLE CREEK   CLOUDY    71  69  93 S5        29.98S FOG
BENTON HARBOR  CLOUDY    72  70  93 SE5       29.95S
COLDWATER*     CLOUDY    71  70  96 SE3       29.99R FOG
HILLSDALE*     CLOUDY    70  70 100 CALM      30.00R FOG
HOLLAND        FOG       72  70  93 SE6       29.97R VSB 1/4
GRAND RAPIDS   FOG       71  71 100 SE6       29.97R VSB 1/2
KALAMAZOO      FOG       71  69  93 CALM      29.98R VSB 3/4
STURGIS*         N/A     72  70  94 S6        29.98R
THREE RIVERS*  CLOUDY    72  71  98 S3        29.98R FOG

$$
OHZ001>008-015>018-024>025-221400-
NORTHWEST OHIO

CITY           SKY/WX    TMP DP  RH WIND       PRES   REMARKS
WAUSEON*       FAIR      73  72  94 CALM      29.99R
DEFIANCE       PTSUNNY   73  69  87 SW6       29.99R
FINDLAY        CLOUDY    72  70  93 SW5       29.99S
TOLEDO EXPRESS MOSUNNY   73  69  87 W3        29.98R
TOLEDO METCALF MOSUNNY   75  69  81 VRB3      29.99S
LIMA           CLOUDY    74  70  87 E3        29.99F

$$
&&



USA.gov is the U.S. government's official web portal to all federal, state and local government web resources and services.